Regional Weather Roundup
Issued by NWS Sioux Falls, SD

Home | Current Version | Previous Version | Text Only | Print | Product List | Glossary Off
Versions: 1 2 3 4 5 6 7 8 9 10 11 12 13 14 15 16 17 18 19 20 21 22 23 24 25 26 27 28 29 30 31 32 33 34 35 36 37 38 39 40 41 42 43 44 45 46 47 48 49 50

000
ASUS43 KFSD 311010
RWRFSD

WEATHER ROUNDUP FOR SE SOUTH DAKOTA/SW MINNESOTA/NW IOWA
NATIONAL WEATHER SERVICE SIOUX FALLS SD
500 AM CDT FRI JUL 31 2015

NOTE: "FAIR" INDICATES FEW OR NO CLOUDS BELOW 12,000 FEET WITH NO
SIGNIFICANT WEATHER AND OR OBSTRUCTIONS TO VISIBILITY.


SDZ038>040-050-052>070-311100-
SOUTHEAST SOUTH DAKOTA

CITY           SKY/WX    TMP DP  RH WIND       PRES   REMARKS
BROOKINGS      CLEAR     59  55  88 N3        30.16S
CHAMBERLAIN    CLEAR     59  56  89 CALM      30.15R
HURON          CLEAR     60  58  92 CALM      30.13R
MADISON        FAIR      59  59 100 SW3       30.15S
MITCHELL       CLEAR     61  58  90 W3        30.13S
SIOUX FALLS    PTCLDY    61  58  90 CALM      30.14R
WINNER         FAIR      63  52  67 S8        30.16S
YANKTON          N/A    N/A N/A N/A MISG        N/A
$$

MNZ071-072-080-081-089-090-097-098-311100-
SOUTHWEST MINNESOTA

CITY           SKY/WX    TMP DP  RH WIND       PRES   REMARKS
FAIRMONT       CLEAR     63  55  77 CALM      30.10S
JACKSON        MOCLDY    61  59  94 W3        30.13S
LUVERNE        PTCLDY    59  55  88 CALM      30.14S
MARSHALL       CLEAR     61  52  72 NW7       30.13R
MONTEVIDEO     CLEAR     61  55  82 NW6       30.13R
PIPESTONE      CLEAR     63  59  88 CALM      30.14S
REDWOOD FALLS  CLEAR     61  57  87 NW7       30.10R
TRACY          CLEAR     68  55  64 W7        30.13R
WINDOM         CLEAR     59  57  94 CALM      30.12S
WORTHINGTON    MOCLDY    61  54  77 W3        30.14S
$$

IAZ001>003-012>014-020>022-031-032-NEZ013-014-SDZ071-311100-
NORTHWEST IOWA

CITY           SKY/WX    TMP DP  RH WIND       PRES   REMARKS
CHEROKEE       CLEAR     66  65  95 CALM      30.14S
DENISON        PTCLDY    66  66 100 SW5       30.12S
ESTHERVILLE    MOCLDY    60  59  96 W7        30.12S
LE MARS        CLEAR     66  64  94 CALM      30.14F
ORANGE CITY    CLEAR     63  61  94 CALM      30.14S
SHELDON        PTCLDY    59  57  94 CALM      30.13S
SIOUX CITY     CLEAR     69  61  75 CALM      30.11F
SPENCER          N/A     63  59  87 W3        30.13S
STORM LAKE     CLEAR     64  63  94 NW6       30.15R
$$

ABBREVIATIONS USED IN REMARKS
   TC - TEMPERATURE IN CELSIUS
  WCI - WIND CHILL INDEX
   HX - HEAT INDEX
  VSB - VISIBILITY



USA.gov is the U.S. government's official web portal to all federal, state and local government web resources and services.